Location: Newark
(41.0400°S, 62.7845°W)
Time: 16:51:56
(UTC+00:00)

STARLINK-3087 - Pass Details

Date: 24 October 2021
Orbit: 357 x 362 km, 70.0° (Epoch: 05 December)

Event Time Altitude Azimuth Distance (km) Brightness Sun altitude
Rises 01:05:05 0° 195° (SSW) 2,237 7.7 -24.2°
Reaches altitude 10° 01:07:18 10° 182° (S) 1,378 6.2 -24.5°
Enters shadow 01:08:02 15° 173° (S) 1,125 5.6 -24.6°
